Regional Weather Roundup
Issued by NWS Little Rock, AR

Home | Current Version | Previous Version | Graphics & Text | Print | Product List | Glossary On
Versions: 1 2 3 4 5 6 7 8 9 10 11 12 13 14 15 16 17 18 19 20 21 22 23 24 25 26 27 28 29 30 31 32 33 34 35 36 37 38 39 40 41 42 43 44 45 46 47 48 49 50
000
ASUS44 KLZK 271812
RWRLZK

WEATHER ROUNDUP FOR ARKANSAS
NATIONAL WEATHER SERVICE LITTLE ROCK AR
1200 PM CST MON FEB 27 2017

NOTE: "FAIR" INDICATES FEW OR NO CLOUDS BELOW 12,000 FEET WITH NO
SIGNIFICANT WEATHER AND/OR OBSTRUCTIONS TO VISIBILITY.

ARZ001-003-010-029-271900-
NORTHWEST ARKANSAS

CITY           SKY/WX    TMP DP  RH WIND       PRES   REMARKS
FAYETTEVILLE   MOSUNNY   62  49  62 S12G17    30.01F
6HR MIN TEMP:  27; 6HR MAX TEMP:  63; 6HR PCP:  0.01;

FORT SMITH     CLOUDY    61  46  57 E12       30.03F
6HR MIN TEMP:  40; 6HR MAX TEMP:  62;

HARRISON       MOSUNNY   60  41  49 SE15      30.06F
6HR MIN TEMP:  32; 6HR MAX TEMP:  64;

BENTONVILLE    SUNNY     64  45  48 S12       30.01F
6HR MIN TEMP:  37; 6HR MAX TEMP:  64;

ROGERS         MOSUNNY   64  46  52 S14       30.01F
6HR MIN TEMP:  37; 6HR MAX TEMP:  64; 6HR PCP: TRACE;

SILOAM SPGS    PTSUNNY   64  46  52 S17       29.99F
6HR MIN TEMP:  36; 6HR MAX TEMP:  64;

HIGHFILL       MOSUNNY   63  46  54 S14       30.00S
6HR MIN TEMP:  33; 6HR MAX TEMP:  64;

SPRINGDALE     MOSUNNY   61  50  67 SE14      30.02F
$$

ARZ004-005-016-271900-
NORTH CENTRAL ARKANSAS

CITY           SKY/WX    TMP DP  RH WIND       PRES   REMARKS
BATESVILLE     CLOUDY    54  46  76 S5        30.13F
6HR MIN TEMP:  39; 6HR MAX TEMP:  55;

FLIPPIN        SUNNY     61  41  48 E8        30.05F
6HR MIN TEMP:  34; 6HR MAX TEMP:  61;

MTN HOME       SUNNY     60  43  53 SE10      30.06F
6HR MIN TEMP:  36; 6HR MAX TEMP:  60;

$$

ARZ040-041-271900-
WEST CENTRAL ARKANSAS

CITY           SKY/WX    TMP DP  RH WIND       PRES   REMARKS
MENA           CLOUDY    66  55  68 SE5       30.05F
MOUNT IDA      PTSUNNY   61  54  77 SE8       30.04F
6HR MIN TEMP:  47; 6HR MAX TEMP:  61; 6HR PCP:  0.01;

$$

ARZ009-017-025-026-028-271900-
NORTHEAST ARKANSAS

CITY           SKY/WX    TMP DP  RH WIND       PRES   REMARKS
CORNING        CLOUDY    59  50  72 S8        30.13F
JONESBORO      MOSUNNY   57  50  77 SE7       30.12F
6HR MIN TEMP:  46; 6HR MAX TEMP:  57;

NEWPORT        CLOUDY    56  49  77 MISG      30.13F
6HR MIN TEMP:  43; 6HR MAX TEMP:  56;

WALNUT RIDGE   CLOUDY    57  46  67 S7        30.12F
6HR MIN TEMP:  41; 6HR MAX TEMP:  59;

BLYTHEVILLE    SUNNY     61  50  67 S8        30.13F
6HR MIN TEMP:  48; 6HR MAX TEMP:  61;

NW BLYTHEVILLE MOSUNNY   61  50  67 SW9       30.13F
$$

ARZ022-023-033-042-044-271900-
CENTRAL ARKANSAS

CITY           SKY/WX    TMP DP  RH WIND       PRES   REMARKS
LITTLE ROCK    CLOUDY    52  52 100 SE8       30.12S
6HR MIN TEMP:  44; 6HR MAX TEMP:  52; 6HR PCP: TRACE;

N LITTLE ROCK    N/A     52  50  93 SE7       30.12F
6HR MIN TEMP:  45; 6HR MAX TEMP:  52;

JACKSONVILLE   CLOUDY    54  51  91 SE8       30.11S
6HR MIN TEMP:  44; 6HR MAX TEMP:  54; 6HR PCP:  0.01;

SEARCY         CLOUDY    53  51  93 E5        30.14F
6HR MIN TEMP:  46; 6HR MAX TEMP:  53;

HOT SPRINGS    CLOUDY    56  54  93 SE7       30.09F
6HR MIN TEMP:  48; 6HR MAX TEMP:  56; 6HR PCP:  0.07;

RUSSELLVILLE   CLOUDY    53  48  83 VRB5      30.09F
6HR MIN TEMP:  36; 6HR MAX TEMP:  53; 6HR PCP: TRACE;

CLINTON        CLOUDY    52  48  87 CALM      30.11F
$$

ARZ036-271900-
EAST ARKANSAS

CITY           SKY/WX    TMP DP  RH WIND       PRES   REMARKS
WEST MEMPHIS     N/A     60  52  74 SE10      30.12F
6HR MIN TEMP:  46; 6HR MAX TEMP:  61;

$$

ARZ050-053-066-070-073-271900-
SOUTHWEST ARKANSAS

CITY           SKY/WX    TMP DP  RH WIND       PRES   REMARKS
ARKADELPHIA    CLOUDY    57  54  89 E3        30.10F
6HR MIN TEMP:  49; 6HR MAX TEMP:  57; 6HR PCP:  0.13;

CAMDEN         LGT RAIN  59  54  82 SE7       30.11S
TEXARKANA      LGT RAIN  57  56  96 E8        30.06F
6HR MIN TEMP:  50; 6HR MAX TEMP:  58; 6HR PCP: TRACE;

EL DORADO      TSTM      55  55 100 SE5       30.10F FOG
6HR MIN TEMP:  52; 6HR MAX TEMP:  58; 6HR PCP:  0.09;

DE QUEEN       CLOUDY    56  55  97 SE8       30.05S
6HR MIN TEMP:  50; 6HR MAX TEMP:  56; 6HR PCP:  0.12;

$$

ARZ056-057-069-271900-
SOUTHEAST ARKANSAS

CITY           SKY/WX    TMP DP  RH WIND       PRES   REMARKS
PINE BLUFF     CLOUDY    57  54  89 SE10      30.12S
6HR MIN TEMP:  49; 6HR MAX TEMP:  57; 6HR PCP:  0.06;

STUTTGART      CLOUDY    54  45  71 SE8       30.14S
6HR MIN TEMP:  46; 6HR MAX TEMP:  54;

MONTICELLO     PTSUNNY   58  53  84 S7        30.12R
6HR MIN TEMP:  49; 6HR MAX TEMP:  59; 6HR PCP:  0.04;


$$





USA.gov is the U.S. government's official web portal to all federal, state and local government web resources and services.